[[{"header":{"parameterUnit":"m.s-1","parameterCategory":1,"la1":30.2991,"la2":30.254,"lo1":-89.0895,"lo2":-89.0444,"dy":0.0017,"dx":0.0017,"nx":28,"ny":28,"refTime":"2025-09-07T09:00:00:Z","depth":0,"parameterNumber":2,"parameterNumberName":"U-component_of_WINDS"},"data":[0,0,0,0,0,0,0,0,0,0,0,0,0,0,0,0,0,0,0,0,0,0,0,0,0,0,0,0,0,0,0,0,0,0,0,0,0,0,0,0,0,0,0,0,0,0,0,0,0,0,0,0,0,0,0,0,0,0,-1.4222,-1.4223,0,-1.4261,-1.4262,-1.4262,-1.4233,-1.4232,-1.423,-1.4229,-1.427,-1.4272,-1.4274,0,0,0,0,0,0,0,0,0,0,0,0,0,-1.4122,-1.4124,-1.4222,-1.4223,-1.4223,-1.4261,-1.4262,-1.4262,-1.4233,-1.4232,-1.423,-1.4229,-1.4269,-1.4272,-1.4275,0,0,0,0,0,0,0,0,0,0,0,0,0,-1.4164,-1.4125,-1.4222,-1.4213,-1.4213,-1.4261,-1.4262,-1.4262,-1.4233,-1.4232,-1.423,-1.4228,-1.4268,-1.4272,-1.4275,-1.4334,0,0,-1.4285,-1.4287,0,0,0,0,0,0,0,0,-1.4161,-1.4167,-1.4214,-1.4214,-1.4213,-1.424,-1.4241,-1.4287,-1.4234,-1.4226,-1.4229,-1.4227,-1.4262,-1.4265,-1.4277,-1.4336,-1.4338,-1.4286,-1.4288,-1.4289,-1.429,0,0,0,0,0,0,0,-1.4159,-1.4166,-1.4238,-1.4215,-1.4214,-1.4207,-1.4211,-1.425,-1.4254,-1.4226,-1.4224,-1.4229,-1.4261,-1.4274,-1.4278,-1.4339,-1.4286,-1.4289,-1.4291,-1.4292,-1.4448,-1.445,0,0,0,0,0,0,-1.4156,-1.4163,-1.4236,-1.4239,-1.4182,-1.421,-1.4215,-1.4234,-1.4253,-1.4255,-1.4231,-1.4228,-1.4269,-1.4274,-1.4279,-1.435,-1.4289,-1.4292,-1.4294,-1.4446,-1.4449,-1.4451,0,0,0,0,0,0,-1.4154,-1.4163,-1.4235,-1.4201,-1.4209,-1.4214,-1.4236,-1.4235,-1.4248,-1.4257,-1.4257,-1.4243,-1.4268,-1.4274,-1.4321,-1.4351,-1.4294,-1.4297,-1.4444,-1.4447,-1.445,-1.4493,0,0,0,0,0,0,-1.4152,-1.4163,-1.4186,-1.4201,-1.4211,-1.4276,-1.4237,-1.4237,-1.4254,-1.425,-1.4269,-1.427,-1.4267,-1.4316,-1.4324,-1.4355,-1.43,-1.4441,-1.4445,-1.4449,-1.4489,-1.4497,-1.4504,0,0,0,0,0,-1.4148,-1.4196,-1.4187,-1.4196,-1.424,-1.4278,-1.4283,-1.4279,-1.4256,-1.4279,-1.4285,-1.4269,-1.4346,-1.4321,-1.433,-1.4362,-1.4439,-1.4444,-1.4448,-1.4485,-1.4495,-1.4504,0,0,0,0,0,0,-1.4185,-1.4198,-1.4188,-1.4243,-1.4259,-1.4273,-1.4302,-1.429,-1.4313,-1.4309,-1.4302,-1.4306,-1.4355,-1.4363,-1.4335,-1.442,-1.4389,-1.4396,-1.4414,-1.4424,-1.4431,-1.4429,-1.4303,0,0,0,0,0,-1.4199,-1.4229,-1.4239,-1.4286,-1.4295,-1.4297,-1.4313,-1.4308,-1.4325,-1.4332,-1.4341,-1.4358,-1.4386,-1.4405,-1.4431,-1.4489,-1.4493,-1.4515,-1.4523,-1.4529,-1.4536,-1.4567,-1.4577,-1.4466,-1.4466,-1.4466,0,0,-1.4229,-1.424,-1.426,-1.4294,-1.4306,-1.4337,-1.4303,-1.4338,-1.4361,-1.4337,-1.4382,-1.4389,-1.4408,-1.446,-1.4483,-1.4468,-1.4567,-1.4535,-1.454,-1.4544,-1.4573,-1.4583,-1.4593,-1.4469,-1.4469,-1.4468,0,0,-1.43,-1.4311,-1.4352,-1.4364,-1.4383,-1.4384,-1.4394,-1.4409,-1.4413,-1.4457,-1.444,-1.4467,-1.4515,-1.4529,-1.4543,-1.4618,-1.4604,-1.4626,-1.4667,-1.4697,-1.4706,-1.4714,-1.4741,-1.4751,-1.4632,-1.4632,-1.4632,0,-1.4335,-1.4382,-1.4374,-1.441,-1.4425,-1.4405,-1.4446,-1.4459,-1.4485,-1.4496,-1.4478,-1.4538,-1.4549,-1.4605,-1.4623,-1.4634,-1.4645,-1.4625,-1.4705,-1.4713,-1.472,-1.4746,-1.4757,-1.4635,-1.4635,-1.4634,-1.4634,0,-1.4424,-1.4456,-1.4487,-1.4513,-1.4531,-1.4569,-1.4568,-1.4588,-1.458,-1.4583,-1.4628,-1.464,-1.4668,-1.4681,-1.4674,-1.4735,-1.4725,-1.4706,-1.4675,-1.4734,-1.4758,-1.4768,-1.4639,-1.4638,-1.4637,-1.4636,0,0,-1.4521,-1.4541,-1.4553,-1.4564,-1.4583,-1.4607,-1.4644,-1.4671,-1.4689,-1.4707,-1.4738,-1.4779,-1.4761,-1.4776,-1.4771,-1.4797,-1.4856,-1.4775,-1.4776,-1.4791,-1.4925,-1.4939,-1.4951,-1.4846,-1.4848,-1.485,-1.4923,0,-1.4594,-1.4658,-1.4652,-1.4713,-1.4743,-1.4723,-1.4755,-1.477,-1.4773,-1.4798,-1.4801,-1.483,-1.4805,-1.4814,-1.4839,-1.4844,-1.4883,-1.4838,-1.4876,-1.4877,-1.4873,-1.4964,-1.498,-1.5049,-1.4933,-1.4934,-1.4935,0,-1.4688,-1.4709,-1.4773,-1.4787,-1.4799,-1.4828,-1.4852,-1.4876,-1.4892,-1.4892,-1.4909,-1.4898,-1.4935,-1.4902,-1.4952,-1.4922,-1.4936,-1.4941,-1.4943,-1.4948,-1.4911,-1.4972,-1.5071,-1.5081,-1.495,-1.4949,-1.4948,0,-1.4754,-1.4798,-1.4842,-1.4852,-1.4869,-1.489,-1.4897,-1.4911,-1.4928,-1.4949,-1.4959,-1.4984,-1.4998,-1.5018,-1.5014,-1.499,-1.5066,-1.5032,-1.5068,-1.5068,-1.5086,-1.5085,-1.519,-1.5093,-1.5093,-1.5093,-1.5093,0,-1.4836,-1.4877,-1.4872,-1.4899,-1.4943,-1.4935,-1.4979,-1.4984,-1.4997,-1.5025,-1.5008,-1.5035,-1.5028,-1.5054,-1.5051,-1.5094,-1.51,-1.5101,-1.51,-1.5104,-1.5104,-1.5114,-1.511,-1.5096,-1.5095,-1.5095,-1.5094,0,-1.4918,-1.4916,-1.4963,-1.4974,-1.4978,-1.501,-1.502,-1.5045,-1.5046,-1.5082,-1.5089,-1.5091,-1.5121,-1.5118,-1.5152,-1.515,-1.5203,-1.5196,-1.5198,-1.5197,-1.5233,-1.523,-1.5349,-1.5365,-1.5257,-1.5258,-1.5259,0,-1.4972,-1.5002,-1.5016,-1.5034,-1.5043,-1.5071,-1.5087,-1.508,-1.5098,-1.5118,-1.5141,-1.5169,-1.5191,-1.524,-1.5244,-1.5269,-1.5263,-1.5303,-1.5267,-1.5269,-1.5265,-1.5264,-1.5267,-1.5311,-1.5312,-1.5313,-1.5314,0,-1.5068,-1.5065,-1.5089,-1.5114,-1.5134,-1.5152,-1.5169,-1.5184,-1.5178,-1.5199,-1.5229,-1.5247,-1.528,-1.5309,-1.5333,-1.534,-1.5327,-1.5325,-1.5335,-1.5339,-1.534,-1.5341,-1.5219,-1.5323,-1.5322,-1.5321,-1.5321,-1.532,-1.5138,-1.5164,-1.5178,-1.5205,-1.5217,-1.5233,-1.5258,-1.5261,-1.5286,-1.5313,-1.5306,-1.534,-1.5354,-1.5385,-1.5395,-1.5421,-1.5407,-1.5421,-1.5425,-1.5429,-1.5434,-1.5334,-1.5426,-1.5425,-1.5425,-1.5425,-1.5425,0,-1.5234,-1.5241,-1.5266,-1.529,-1.5312,-1.5296,-1.5313,-1.5333,-1.5363,-1.5377,-1.5399,-1.5433,-1.546,-1.5466,-1.5491,-1.5511,-1.5506,-1.5519,-1.5518,-1.552,-1.5444,-1.5434,-1.5523,-1.5523,-1.5523,-1.5523,-1.5523,-1.5523,-1.5286,-1.533,-1.5328,-1.5377,-1.5384,-1.5417,-1.5429,-1.5443,-1.5454,-1.5493,-1.5515,-1.5518,-1.5529,-1.5555,-1.5579,-1.558,-1.5591,-1.5606,-1.5605,-1.5535,-1.5525,-1.5516,-1.5506,-1.5609,-1.5609,-1.5678,-1.5679,-1.568]},{"header":{"parameterUnit":"m.s-1","parameterCategory":1,"la1":30.2991,"la2":30.254,"lo1":-89.0895,"lo2":-89.0444,"dy":0.0017,"dx":0.0017,"nx":28,"ny":28,"refTime":"2025-09-07T09:00:00:Z","depth":0,"parameterNumber":3,"parameterNumberName":"V-component_of_WINDS"},"data":[0,0,0,0,0,0,0,0,0,0,0,0,0,0,0,0,0,0,0,0,0,0,0,0,0,0,0,0,0,0,0,0,0,0,0,0,0,0,0,0,0,0,0,0,0,0,0,0,0,0,0,0,0,0,0,0,0,0,-6.0475,-6.0475,0,-6.0502,-6.0503,-6.0503,-6.0425,-6.0422,-6.042,-6.0417,-6.044,-6.0443,-6.0446,0,0,0,0,0,0,0,0,0,0,0,0,0,-6.0351,-6.0354,-6.0475,-6.0476,-6.0476,-6.0502,-6.0503,-6.0503,-6.0425,-6.0422,-6.0419,-6.0416,-6.0439,-6.0443,-6.0446,0,0,0,0,0,0,0,0,0,0,0,0,0,-6.0394,-6.0355,-6.0475,-6.044,-6.0437,-6.0502,-6.0503,-6.0503,-6.0426,-6.0422,-6.0418,-6.0415,-6.0438,-6.0442,-6.0447,-6.0545,0,0,-6.046,-6.0461,0,0,0,0,0,0,0,0,-6.0392,-6.0399,-6.0445,-6.0443,-6.044,-6.0456,-6.0467,-6.0517,-6.0426,-6.043,-6.0417,-6.0413,-6.0448,-6.0451,-6.0464,-6.0546,-6.0547,-6.046,-6.0463,-6.0464,-6.0466,0,0,0,0,0,0,0,-6.0389,-6.0397,-6.0486,-6.0446,-6.0443,-6.0422,-6.0424,-6.0476,-6.0459,-6.0429,-6.0424,-6.0428,-6.0446,-6.046,-6.0464,-6.0547,-6.046,-6.0464,-6.0466,-6.0468,-6.0711,-6.0715,0,0,0,0,0,0,-6.0391,-6.0395,-6.0485,-6.0486,-6.0407,-6.0427,-6.0429,-6.0455,-6.0458,-6.0455,-6.0431,-6.0425,-6.0455,-6.0459,-6.0465,-6.058,-6.0464,-6.0468,-6.0471,-6.0707,-6.0712,-6.0716,0,0,0,0,0,0,-6.0389,-6.04,-6.0484,-6.0439,-6.0449,-6.0433,-6.0462,-6.0457,-6.0471,-6.046,-6.0456,-6.045,-6.0452,-6.0459,-6.0526,-6.058,-6.047,-6.0474,-6.0703,-6.0709,-6.0714,-6.0812,0,0,0,0,0,0,-6.0386,-6.04,-6.0438,-6.0441,-6.0451,-6.0546,-6.0465,-6.046,-6.0479,-6.0471,-6.0476,-6.0473,-6.045,-6.052,-6.053,-6.0584,-6.0477,-6.0698,-6.0705,-6.0712,-6.0804,-6.0821,-6.0835,0,0,0,0,0,-6.0381,-6.0463,-6.044,-6.0451,-6.0499,-6.0549,-6.0555,-6.0528,-6.0484,-6.0522,-6.0514,-6.0473,-6.0573,-6.0528,-6.0538,-6.0594,-6.0694,-6.0703,-6.0712,-6.0797,-6.0818,-6.0835,0,0,0,0,0,0,-6.0464,-6.0463,-6.0437,-6.0523,-6.0537,-6.0536,-6.0583,-6.0551,-6.0576,-6.0567,-6.0531,-6.0533,-6.0607,-6.0607,-6.0557,-6.069,-6.0626,-6.0637,-6.0687,-6.0706,-6.0721,-6.0719,-6.0481,0,0,0,0,0,-6.0493,-6.0536,-6.0531,-6.0607,-6.0616,-6.0599,-6.0619,-6.0598,-6.061,-6.0616,-6.0613,-6.0626,-6.066,-6.0683,-6.0713,-6.0804,-6.0804,-6.0848,-6.0863,-6.0876,-6.0886,-6.0934,-6.0953,-6.0745,-6.0745,-6.0745,0,0,-6.0551,-6.0556,-6.0585,-6.0624,-6.0632,-6.0676,-6.0604,-6.0653,-6.0685,-6.0622,-6.0686,-6.0685,-6.0697,-6.0776,-6.0811,-6.0779,-6.0944,-6.0887,-6.0897,-6.09,-6.0945,-6.0965,-6.0982,-6.0751,-6.075,-6.0749,0,0,-6.0681,-6.0689,-6.0753,-6.0764,-6.0779,-6.0767,-6.0783,-6.0787,-6.0785,-6.0849,-6.0803,-6.0839,-6.0899,-6.091,-6.0923,-6.1058,-6.1021,-6.1069,-6.1149,-6.1197,-6.1213,-6.1227,-6.1276,-6.1293,-6.1079,-6.1079,-6.1079,0,-6.0751,-6.0817,-6.079,-6.0843,-6.0861,-6.0809,-6.0873,-6.0884,-6.0908,-6.0921,-6.0885,-6.096,-6.0964,-6.1045,-6.1079,-6.1091,-6.1107,-6.1068,-6.1213,-6.1227,-6.124,-6.1286,-6.1304,-6.1085,-6.1084,-6.1084,-6.1083,0,-6.0903,-6.095,-6.1,-6.1026,-6.105,-6.1109,-6.1089,-6.1116,-6.1093,-6.1084,-6.115,-6.1154,-6.1185,-6.1202,-6.1179,-6.1281,-6.126,-6.122,-6.1154,-6.1266,-6.1309,-6.1326,-6.1093,-6.1091,-6.1089,-6.1088,0,0,-6.1084,-6.1097,-6.1115,-6.1127,-6.1141,-6.1175,-6.1231,-6.1263,-6.1287,-6.1305,-6.1351,-6.1403,-6.1366,-6.1381,-6.1358,-6.14,-6.1507,-6.1354,-6.1354,-6.1382,-6.162,-6.1651,-6.1671,-6.1483,-6.1486,-6.1489,-6.1619,0,-6.1212,-6.131,-6.1288,-6.1384,-6.1426,-6.1378,-6.1426,-6.1439,-6.1433,-6.1467,-6.1459,-6.1498,-6.1445,-6.1454,-6.1493,-6.1486,-6.1555,-6.1476,-6.1524,-6.1526,-6.1523,-6.1693,-6.1726,-6.1848,-6.1635,-6.1638,-6.164,0,-6.1374,-6.1401,-6.1503,-6.151,-6.1527,-6.1571,-6.1599,-6.1633,-6.1646,-6.1639,-6.1657,-6.1627,-6.168,-6.1616,-6.1689,-6.1637,-6.1655,-6.1655,-6.1659,-6.1662,-6.159,-6.1701,-6.1887,-6.1905,-6.1666,-6.1664,-6.1662,0,-6.1496,-6.1558,-6.1627,-6.1638,-6.1649,-6.1681,-6.1686,-6.1696,-6.1718,-6.1742,-6.1755,-6.1784,-6.18,-6.1823,-6.1802,-6.1756,-6.1879,-6.1812,-6.1873,-6.1874,-6.1901,-6.1899,-6.2092,-6.1913,-6.1913,-6.1912,-6.1912,0,-6.1641,-6.1705,-6.1682,-6.1724,-6.1794,-6.1767,-6.1836,-6.1836,-6.1846,-6.1886,-6.1845,-6.1883,-6.1852,-6.1888,-6.1871,-6.1935,-6.1942,-6.1937,-6.1932,-6.1941,-6.1941,-6.1951,-6.1942,-6.1917,-6.1916,-6.1915,-6.1914,0,-6.1789,-6.1777,-6.1848,-6.1853,-6.1856,-6.1907,-6.1911,-6.1949,-6.1941,-6.1993,-6.2003,-6.1989,-6.2029,-6.201,-6.205,-6.2039,-6.2121,-6.2105,-6.2118,-6.2113,-6.2176,-6.217,-6.2382,-6.2408,-6.2212,-6.2214,-6.2216,0,-6.1883,-6.1931,-6.1942,-6.1967,-6.1977,-6.2017,-6.204,-6.2015,-6.2039,-6.2059,-6.2095,-6.2132,-6.216,-6.2225,-6.2218,-6.2249,-6.2232,-6.2304,-6.2236,-6.2244,-6.2233,-6.2231,-6.2236,-6.2318,-6.232,-6.2322,-6.2323,0,-6.205,-6.2041,-6.2076,-6.2109,-6.2138,-6.2162,-6.2182,-6.2204,-6.218,-6.221,-6.2251,-6.2273,-6.2316,-6.2353,-6.238,-6.2384,-6.235,-6.2345,-6.2361,-6.237,-6.2376,-6.2374,-6.2155,-6.234,-6.2338,-6.2337,-6.2336,-6.2336,-6.2173,-6.2214,-6.2229,-6.2269,-6.2282,-6.2303,-6.234,-6.2337,-6.2372,-6.2406,-6.2389,-6.2437,-6.2449,-6.2483,-6.2492,-6.2528,-6.2499,-6.2522,-6.2528,-6.2534,-6.2543,-6.2371,-6.2533,-6.2532,-6.2532,-6.2531,-6.2531,0,-6.2338,-6.2346,-6.2383,-6.2414,-6.2446,-6.2413,-6.2435,-6.2463,-6.2506,-6.2522,-6.2551,-6.2598,-6.2634,-6.2631,-6.2663,-6.2693,-6.2678,-6.2702,-6.27,-6.2701,-6.2566,-6.2549,-6.2714,-6.2714,-6.2714,-6.2714,-6.2714,-6.2714,-6.2427,-6.2496,-6.2489,-6.2564,-6.257,-6.2619,-6.2634,-6.2652,-6.2664,-6.272,-6.2751,-6.2749,-6.2757,-6.279,-6.2821,-6.2818,-6.2832,-6.2862,-6.2855,-6.2729,-6.271,-6.2693,-6.2677,-6.2866,-6.2866,-6.2986,-6.2987,-6.2988]}]]